Flag for U.S.A. Weather past 2 weeks in Aurora, Illinois, U.S.A.

58 °F


Feels Like: 55 °F
Forecast: 35 / 54 °F
Wind: 15 mph from Southwest

Location: Dupage Airport

Current Time: Nov 26, 2015 at 11:10:35 PM

Latest Report: Nov 26, 2015 at 9:52 PM

Visibility: 10 mi

Pressure: 30.15 "Hg

Humidity: 78%

Dew point: 51 °F

Location of AuroraLocation

Historic Weather in Aurora — Graph


Aurora temperature yesterday

Maximum temperature yesterday: 50 °F (at 8:52 PM)
Minimum temperature yesterday: 37 °F (at 1:52 AM)
Average temperature yesterday: 44 °F

Past Weeks' High & Low Weather Summary

High63 °F (Nov 15, 12:52 PM)96% (Nov 21, 7:52 AM)30.35 "Hg (Nov 21, 7:52 AM)
Low4 °F (Nov 22, 6:59 AM)34% (Nov 15, 1:52 PM)29.24 "Hg (Nov 12, 12:52 AM)
Average41 °F72%30.04 "Hg
* Reported Nov 11 9:00 PM — Nov 26 8:52 PM, Aurora, Weather by CustomWeather, © 2015

Note: Actual official high and low records may vary slightly from our data, if they occured in-between our weather recording intervals... More about our weather records


Aurora weather history for previous 24 hours

Time TempWeatherWind HumidityBarometerVisibility
8:52 PM
Thu, Nov 26
58 °FOvercast.20 mph81%30.16 "Hg10 mi
7:52 PM58 °FOvercast.15 mph84%30.16 "Hg10 mi
6:52 PM58 °FOvercast.14 mph84%30.15 "Hg10 mi
5:52 PM59 °FLight rain. Overcast.16 mph81%30.14 "Hg10 mi
4:52 PM59 °FOvercast.14 mph81%30.15 "Hg10 mi
3:52 PM58 °FOvercast.13 mph87%30.14 "Hg10 mi
2:52 PM58 °FMostly cloudy.14 mph84%30.13 "Hg10 mi
1:52 PM57 °FLight rain. Overcast.15 mph87%30.14 "Hg10 mi
12:52 PM54 °FRain. Fog.15 mph93%30.16 "Hg3 mi
11:52 AM55 °FOvercast.16 mph87%30.19 "Hg10 mi
10:52 AM54 °FOvercast.14 mph86%30.22 "Hg10 mi
9:52 AM53 °FLight rain. Overcast.13 mph86%30.23 "Hg10 mi
8:52 AM52 °FMostly cloudy.13 mph86%30.24 "Hg10 mi
7:52 AM51 °FMostly cloudy.12 mph86%30.24 "Hg10 mi
6:52 AM50 °FMostly cloudy.13 mph89%30.23 "Hg10 mi
5:52 AM50 °FMostly cloudy.14 mph86%30.22 "Hg10 mi
4:52 AM48 °FLight rain. Overcast.12 mph93%30.22 "Hg7 mi
3:52 AM47 °FLight rain. Fog.9 mph93%30.22 "Hg5 mi
2:52 AM47 °FLight rain. Fog.12 mph93%30.22 "Hg5 mi
1:52 AM47 °FRain. Fog.12 mph90%30.22 "Hg4 mi
12:52 AM48 °FLight rain. Overcast.14 mph83%30.22 "Hg5 mi
11:52 PM
Wed, Nov 25
48 °FLight rain. Overcast.15 mph77%30.21 "Hg9 mi
Weather by CustomWeather, © 2015

See weather overviewHow to use our weather pages